Zurück zum Katalog

CZ-6A DEB

AktivSSO
NORAD 54499·DEBRIS·🇨🇳 China

Gestartet Nov 11, 2022 von Taiyuan Satellite Launch Center

Loading…

Nächste Überflüge (nächste 24 Stunden)

TLE

AktuellSource: Space-Track

Epoche: Sep 14, 2026, 14:26 UTC

1 54499U 22151JB  26257.60194866  .00000197  00000-0  61788-4 0  9995
2 54499  98.5720 311.3844 0134184  24.3160 336.4285 14.46578428202335

Verfolge CZ-6A DEB in Echtzeit mit AllMySat

Download on the App Store